DateTimeUTC,F1_A11,F1_S11,BsB_S11,BsG_S11,BsR_S11,BbsB_S11,BbsG_S11,BbsR_S11,BaB_A11,BaG_A11,BaR_A11,Tu_S11,T_S11,Uu_S11,U_S11,P_S11,T1_A11
2021-04-05T12:00:00Z,00000200,21000000,,,,,,,-000.22,-000.38,-000.02,15.5,22.9,,00.0,0660.5,30.8
2021-04-05T12:01:00Z,00000200,21000000,,,,,,,-000.41,-000.16,0000.14,15.5,22.9,,00.0,0660.5,30.9
2021-04-05T12:02:00Z,00000200,21000000,,,,,,,-000.07,-000.30,-000.10,15.6,22.9,,00.0,0660.6,30.9
2021-04-05T12:03:00Z,00000200,61000000,,,,,,,0000.03,-000.18,-000.02,15.6,23.0,,00.0,0660.6,30.9
2021-04-05T12:04:00Z,00000200,41000000,0001.50,0001.22,0000.71,-000.03,0000.10,0000.06,0000.48,0000.82,0000.64,15.9,22.9,,00.0,0661.5,30.9
2021-04-05T12:05:00Z,00000200,01000000,0001.47,0000.85,0000.92,-000.44,0000.22,0000.11,0000.68,0000.28,0000.08,15.9,22.8,,00.0,0661.6,30.8
2021-04-05T12:06:00Z,00000200,01000000,0001.81,0001.28,0000.68,0000.60,0000.11,0000.29,0000.18,0000.43,-000.04,15.9,22.8,,00.0,0661.6,30.8
2021-04-05T12:07:00Z,00000200,01000000,0001.50,0001.02,0000.62,0000.28,-000.10,0000.17,0000.41,0000.13,0000.52,15.8,22.7,,00.0,0661.7,30.8
2021-04-05T12:08:00Z,00000200,01000000,0001.22,0001.28,0000.63,0000.52,0000.16,-000.08,0000.46,0000.52,0000.28,15.8,22.7,,00.0,0661.7,30.8
2021-04-05T12:09:00Z,00000200,01000000,0002.03,0001.04,0000.79,0000.27,0000.27,0000.08,0000.66,0000.83,0000.50,15.7,22.7,,00.0,0661.7,30.8
2021-04-05T12:10:00Z,00000200,01000000,0010.50,0010.05,0010.32,0002.11,0002.12,0002.12,0073.41,0068.33,0051.09,15.7,22.7,10.0,06.5,0662.0,30.8
2021-04-05T12:11:00Z,00000200,00000000,0001.66,0001.17,0000.95,0000.30,0000.18,0000.08,-007.49,-006.81,-004.89,15.6,22.7,13.8,08.9,0662.0,30.8
2021-04-05T12:12:00Z,00000200,00000000,0001.70,0001.43,0001.04,0000.10,0000.29,-000.07,-005.96,-005.99,-003.90,15.6,22.6,08.7,05.6,0662.0,30.8
2021-04-05T12:13:00Z,00000200,00000000,0002.22,0001.14,0001.00,-000.31,-000.06,-000.09,-003.71,-003.24,-001.99,15.6,22.6,05.6,03.6,0662.0,30.8
2021-04-05T12:14:00Z,00000200,00000000,0002.18,0001.37,0001.08,-000.29,0000.23,0000.04,-002.97,-002.69,-002.18,15.6,22.6,03.9,02.5,0662.0,30.8
2021-04-05T12:15:00Z,00000200,01000000,0001.77,0001.15,0000.71,0000.36,0000.08,-000.12,-004.20,-003.90,-002.16,15.6,22.6,02.1,01.3,0661.9,30.8
2021-04-05T12:16:00Z,00000200,01000000,0000.87,0001.43,0000.86,-000.08,0000.18,-000.07,-002.54,-002.17,-001.60,15.7,22.6,00.9,00.6,0661.8,30.8
2021-04-05T12:17:00Z,00000200,01000000,0001.50,0001.34,0000.58,0000.71,0000.13,0000.31,-001.62,-001.88,-000.57,15.7,22.7,00.1,00.1,0661.8,30.8
2021-04-05T12:18:00Z,00000200,01000000,0001.19,0001.06,0000.82,0000.69,0000.37,0000.04,-001.63,-001.14,-000.98,15.8,22.7,,00.0,0661.8,30.8
2021-04-05T12:19:00Z,00000200,01000000,0001.83,0001.33,0000.95,0000.22,0000.21,0000.09,-000.27,-000.19,0000.08,15.8,22.7,,00.0,0661.8,30.8
2021-04-05T12:20:00Z,00000200,01000000,0001.86,0001.25,0000.53,0000.09,0000.29,0000.14,-000.69,-000.70,-000.49,15.8,22.7,,00.0,0661.8,30.8
2021-04-05T12:21:00Z,00000200,01000000,0001.46,0001.09,0000.53,0000.01,0000.00,-000.08,-000.62,-000.49,-000.01,15.8,22.7,,00.0,0661.8,30.8
2021-04-05T12:22:00Z,00000200,01000000,0001.76,0001.23,0000.87,0000.53,0000.16,0000.08,-000.27,-000.53,-000.29,15.8,22.7,,00.0,0661.8,30.8
2021-04-05T12:23:00Z,00000200,01000000,0001.36,0001.28,0000.80,0000.59,0000.04,-000.01,-000.52,0000.54,0000.11,15.7,22.6,,00.0,0661.9,30.8
2021-04-05T12:24:00Z,00000200,01000000,0002.01,0001.23,0000.68,0000.17,0000.27,0000.14,0000.46,-000.16,0000.33,15.7,22.6,,00.0,0661.8,30.8
2021-04-05T12:25:00Z,00000200,01000000,0001.80,0001.03,0000.76,0000.08,0000.27,-000.05,-000.27,-000.07,-000.06,15.7,22.6,,00.0,0661.8,30.8
2021-04-05T12:26:00Z,00000200,01000000,0001.38,0000.85,0000.66,0000.26,0000.29,0000.08,-000.10,-000.12,0000.02,15.7,22.6,,00.0,0661.9,30.8
2021-04-05T12:27:00Z,00000200,01000000,0002.42,0001.06,0000.59,0000.47,0000.07,-000.14,-001.26,-001.22,-000.77,15.6,22.6,,00.0,0661.9,30.8
2021-04-05T12:28:00Z,00000200,01000000,0001.62,0001.32,0000.62,0000.49,0000.17,0000.16,-000.17,-000.16,0000.17,15.6,22.6,,00.0,0661.9,30.8
2021-04-05T12:29:00Z,00000200,01000000,0002.09,0001.27,0000.82,0000.44,0000.08,-000.06,0000.11,0000.16,-000.09,15.7,22.6,,00.0,0661.9,30.8
2021-04-05T12:30:00Z,00000200,01000000,0001.50,0001.03,0000.66,-000.26,0000.07,-000.04,-001.04,-000.97,-000.52,15.7,22.6,,00.0,0661.9,30.9
2021-04-05T12:31:00Z,00000200,01000000,0002.09,0000.93,0000.92,0000.24,0000.15,0000.24,-000.28,-000.10,-000.00,15.8,22.7,,00.0,0661.9,30.9
2021-04-05T12:32:00Z,00000200,01000000,0001.02,0001.22,0000.92,0000.22,0000.33,0000.07,-000.03,0000.08,-000.07,15.9,22.7,,00.0,0661.9,30.9
2021-04-05T12:33:00Z,00000200,01000000,0001.86,0001.24,0000.67,-000.25,0000.05,-000.04,0000.30,0000.47,0000.42,15.9,22.7,,00.0,0661.9,30.9
2021-04-05T12:34:00Z,00000200,01000000,0001.51,0001.34,0000.74,0000.47,0000.22,-000.10,0000.05,-000.27,0000.08,15.9,22.7,,00.0,0662.0,30.9
2021-04-05T12:35:00Z,00000200,01000000,0001.14,0001.09,0001.02,0000.07,0000.11,0000.13,0000.17,0000.34,0000.14,15.9,22.7,,00.0,0662.0,30.9
2021-04-05T12:36:00Z,00000200,01000000,0001.46,0001.12,0000.86,0000.55,0000.09,0000.02,0000.23,-000.26,0000.21,15.8,22.7,,00.0,0662.0,30.9
2021-04-05T12:37:00Z,00000200,01000000,0001.13,0001.17,0000.75,-000.02,0000.06,0000.05,0000.29,0000.76,0000.46,15.8,22.7,,00.0,0662.0,30.9
2021-04-05T12:38:00Z,00000200,01000000,0001.70,0001.16,0000.73,0000.05,0000.12,-000.13,0000.74,0000.31,0000.21,15.8,22.7,,00.0,0662.0,30.9
2021-04-05T12:39:00Z,00000200,01000000,0001.57,0001.03,0000.73,0000.81,0000.24,0000.03,0000.75,0000.69,0000.97,15.8,22.7,,00.0,0662.0,30.9
2021-04-05T12:40:00Z,00000200,01000000,0001.22,0001.22,0000.64,0000.14,0000.13,0000.16,0000.31,0000.68,0000.17,15.8,22.7,,00.0,0662.0,30.9
2021-04-05T12:41:00Z,00000200,01000000,0001.68,0001.03,0000.80,0000.05,0000.18,0000.11,0000.65,0000.71,0000.31,15.7,22.6,,00.0,0662.0,30.9
2021-04-05T12:42:00Z,00000200,01000000,0001.55,0001.21,0000.97,0000.14,0000.44,0000.01,0000.67,-000.06,0000.46,15.7,22.6,,00.0,0662.0,30.9
2021-04-05T12:43:00Z,00000200,01000000,0001.82,0001.05,0000.91,0000.41,0000.23,0000.14,0000.62,0000.59,0000.30,15.7,22.6,,00.0,0662.0,30.9
2021-04-05T12:44:00Z,00000200,01000000,0001.32,0001.18,0000.77,0000.75,0000.20,0000.12,-000.41,-000.09,0000.02,15.8,22.6,,00.0,0662.1,30.9
2021-04-05T12:45:00Z,00000200,01000000,0001.18,0000.99,0000.85,-000.09,0000.24,0000.16,0000.59,0000.44,0000.34,15.9,22.7,,00.0,0662.1,30.9
2021-04-05T12:46:00Z,00000200,01000000,0002.02,0000.86,0000.75,0000.74,0000.02,-000.13,0000.33,0000.42,0000.38,15.9,22.7,,00.0,0662.1,30.9
2021-04-05T12:47:00Z,00000200,01000000,0000.84,0001.04,0000.82,0000.37,0000.19,0000.19,0000.39,0000.73,0000.35,15.9,22.7,,00.0,0662.1,30.9
2021-04-05T12:48:00Z,00000200,01000000,0001.81,0001.05,0000.88,0000.18,0000.36,-000.04,0000.92,0000.37,0000.32,15.9,22.7,,00.0,0662.1,30.9
2021-04-05T12:49:00Z,00000200,01000000,0002.11,0000.96,0000.98,0000.30,0000.13,0000.21,0000.48,0000.75,0000.42,15.9,22.7,,00.0,0662.1,30.9
2021-04-05T12:50:00Z,00000200,01000000,0001.36,0000.95,0000.63,0000.32,0000.12,-000.10,-000.08,0000.01,-000.05,15.9,22.7,,00.0,0662.1,30.9
2021-04-05T12:51:00Z,00000200,01000000,0001.82,0001.14,0000.71,0000.20,0000.29,-000.20,0000.60,-000.01,0000.53,15.8,22.7,,00.0,0662.2,30.9
2021-04-05T12:52:00Z,00000200,01000000,0001.50,0001.00,0000.89,0000.19,0000.25,0000.22,0000.38,0000.62,0000.24,15.8,22.7,,00.0,0662.2,30.9
2021-04-05T12:53:00Z,00000200,01000000,0001.65,0000.88,0000.59,0000.10,0000.23,-000.20,0000.30,0000.42,0000.24,15.8,22.7,,00.0,0662.2,30.9
2021-04-05T12:54:00Z,00000200,01000000,0001.38,0000.95,0000.54,0000.07,0000.15,0000.04,0000.44,-000.06,0000.62,15.8,22.7,,00.0,0662.2,30.9
2021-04-05T12:55:00Z,00000200,01000000,0001.74,0001.16,0000.78,0000.24,0000.29,0000.02,0000.09,0000.36,-000.20,15.8,22.6,,00.0,0662.2,30.9
2021-04-05T12:56:00Z,00000200,01000000,0001.69,0001.12,0000.72,0000.55,0000.12,0000.22,0000.30,0000.62,0000.58,15.7,22.6,,00.0,0662.3,30.9
2021-04-05T12:57:00Z,00000200,41000000,,,,,,,0002.57,0001.67,0001.05,15.8,22.7,,00.0,0662.3,30.9
2021-04-05T12:58:00Z,00000200,61000000,,,,,,,-000.89,-000.79,-000.72,15.5,22.8,,00.0,0661.3,30.9
2021-04-05T12:59:00Z,00000200,21000000,,,,,,,-000.68,-000.41,-000.04,15.5,22.9,,00.0,0661.3,30.9
